Location: Dixon Springs
(37.3845°N, 88.6687°W)
Time: 08:44:57
(UTC+00:00)

Daily predictions for brighter satellites

Satellite Brightness Start Highest point End
(mag) Time Altitude Azimuth Time Altitude Azimuth Time Altitude Azimuth
STARLINK 1064 3.4 12:01:27 14° NW 12:04:24 69° NE 12:07:55 10° SE
Meteor 1-18 Rocket 4.5 12:00:38 10° NNW 12:05:53 45° W 12:11:10 10° SSW
STARLINK 1041 3.3 12:04:26 13° NW 12:07:31 75° NE 12:11:03 10° SE
Cosmos 1346 Rocket 3.4 12:05:52 10° SW 12:09:21 32° WNW 12:12:52 10° NNW
GEOS 3 Rocket 4.4 12:05:10 10° S 12:09:40 32° WSW 12:14:13 10° NW
STARLINK 1038 3.2 12:07:26 12° NW 12:10:39 80° NE 12:14:10 10° SE
FALCON 9 DEB 3.0 12:10:39 16° WNW 12:12:11 34° SW 12:14:22 10° SSE
STARLINK 1046 3.2 12:10:26 11° NW 12:13:45 86° NE 12:17:17 10° SE
COSMO-SKYMED 1 4.0 12:11:12 10° SW 12:14:20 19° W 12:17:28 10° NW
FENGYUN 3A 4.3 12:09:54 10° N 12:14:37 32° WNW 12:19:18 10° SW
H-2A R/B 2.7 12:11:23 10° NNE 12:15:08 88° E 12:18:56 10° SSW
Cosmos 1844 4.3 12:10:28 10° S 12:16:11 65° ESE 12:21:55 10° NNE
STARLINK 1039 3.2 12:13:26 11° NW 12:16:52 88° SW 12:20:24 10° SE
STARLINK 1045 3.2 12:14:49 10° NW 12:18:19 85° SW 12:21:52 10° SE
FALCON 9 DEB 3.4 12:17:11 12° WNW 12:18:58 27° SW 12:21:03 10° SSE
Cosmos 2221 Rocket 3.9 12:16:06 10° NNW 12:20:17 44° W 12:24:28 10° SSW
Cosmos 1331 Rocket 4.0 12:15:50 10° SSW 12:20:55 64° WNW 12:26:04 10° NNE
PSLV R/B 3.0 12:18:52 12° WNW 12:21:01 44° NNE 12:23:22 10° E
Cosmos 1844 Rocket 2.7 12:16:01 10° SSW 12:21:36 88° WNW 12:27:13 10° NNE
OE (NEXTSAT) 4.4 12:18:25 10° WNW 12:21:53 80° SW 12:25:24 10° SE
CZ-4B R/B 3.7 12:16:43 10° N 12:21:54 39° WNW 12:27:05 10° SW
STARLINK 1027 3.0 12:19:27 10° NW 12:22:18 54° SW 12:25:10 10° SSE
STARLINK 1028 3.0 12:19:41 10° NW 12:22:31 54° SW 12:25:23 10° SSE
STARLINK 1021 3.0 12:19:54 10° WNW 12:22:45 54° SW 12:25:36 10° SSE
STARLINK 1019 3.0 12:20:04 10° NW 12:22:58 54° SW 12:25:51 10° SSE
STARLINK 1012 3.0 12:20:20 10° WNW 12:23:11 53° SW 12:26:02 10° SSE
STARLINK 1010 3.0 12:20:33 10° WNW 12:23:25 53° SW 12:26:16 10° SSE
STARLINK 1026 3.0 12:20:46 10° WNW 12:23:37 52° SW 12:26:28 10° SSE
STARLINK 1013 3.0 12:21:01 10° WNW 12:23:52 52° SW 12:26:43 10° SSE
Meteor 1-11 Rocket 3.8 12:18:11 10° S 12:23:53 87° W 12:29:46 10° N
STARLINK 1009 3.0 12:21:12 10° WNW 12:24:04 51° SW 12:26:54 10° SSE
STARLINK 1015 3.0 12:21:24 10° WNW 12:24:16 51° SW 12:27:06 10° SSE
STARLINK 1016 3.1 12:21:41 10° WNW 12:24:33 51° SW 12:27:23 10° SSE
STARLINK 1008 3.1 12:21:55 10° WNW 12:24:46 50° SW 12:27:36 10° SSE
Cosmos 332 Rocket 3.8 12:20:02 10° SSW 12:24:53 65° WNW 12:29:47 10° NNE
STARLINK 1014 3.1 12:22:08 10° WNW 12:24:58 50° SW 12:27:49 10° SSE
STARLINK 1025 3.1 12:22:21 10° WNW 12:25:12 50° SW 12:28:02 10° SSE
STARLINK 1017 3.1 12:22:36 10° WNW 12:25:27 49° SW 12:28:17 10° SSE
STARLINK 1034 3.1 12:22:40 10° WNW 12:25:33 50° SW 12:28:25 10° SSE
STARLINK 1023 3.1 12:22:48 10° WNW 12:25:38 49° SW 12:28:28 10° SSE
STARLINK 1007 3.1 12:23:02 10° WNW 12:25:52 49° SW 12:28:43 10° SSE
STARLINK 1048 3.1 12:23:14 10° WNW 12:26:04 48° SW 12:28:53 10° SSE
STARLINK 1052 3.1 12:23:20 10° WNW 12:26:11 48° SW 12:29:00 10° SSE
STARLINK 1049 3.1 12:23:29 10° WNW 12:26:20 48° SW 12:29:09 10° SSE
STARLINK 1051 3.1 12:23:42 10° WNW 12:26:32 48° SW 12:29:22 10° SSE
STARLINK 1037 3.1 12:23:56 10° WNW 12:26:45 47° SW 12:29:35 10° SSE
STARLINK 1059 3.2 12:24:09 10° WNW 12:27:00 47° SW 12:29:49 10° SSE
STARLINK 1057 3.2 12:24:23 10° WNW 12:27:13 47° SW 12:30:02 10° SSE
STARLINK 1068 3.2 12:24:51 10° WNW 12:27:41 46° SW 12:30:30 10° SSE
STARLINK 1029 3.2 12:25:05 10° WNW 12:27:55 46° SW 12:30:43 10° SSE
STARLINK 1060 3.2 12:25:18 10° WNW 12:28:07 45° SW 12:30:55 10° SSE
STARLINK 1030 3.2 12:25:30 10° WNW 12:28:21 45° SW 12:31:12 10° SSE
STARLINK 1040 3.4 12:25:45 10° WNW 12:28:32 41° SW 12:31:18 10° SSE
STARLINK 1020 3.2 12:25:45 10° WNW 12:28:34 45° SW 12:31:22 10° SSE
STARLINK 1033 3.3 12:26:26 10° WNW 12:29:15 44° SW 12:32:02 10° SSE
STARLINK 1031 3.3 12:26:37 10° WNW 12:29:26 43° SW 12:32:13 10° SSE
STARLINK 1024 3.3 12:26:51 10° WNW 12:29:42 43° SW 12:32:31 10° SSE
Atlas Centaur 2 4.3 22:57:03 10° W 23:03:27 37° SSW 23:10:51 10° SE
Meteor 1-27 Rocket 3.8 23:00:34 10° S 23:06:13 71° E 23:12:03 10° NNE
Meteor 1-11 Rocket 3.9 23:02:39 10° N 23:08:36 66° E 23:14:28 10° SSE
Cosmos 1980 3.8 23:05:34 10° SSW 23:11:12 85° WNW 23:16:54 10° NNE
BREEZE-M DEB (TANK) 4.4 23:09:19 10° WSW 23:13:48 64° NNW 23:32:27 10° ENE
Cosmos 1536 3.1 23:13:08 10° N 23:17:00 45° E 23:20:49 10° SSE
Shenzhou-11 Module 3.0 23:16:03 10° NW 23:18:28 27° N 23:20:27 13° ENE
Cosmos 1862 Rocket 3.8 23:15:05 10° SSW 23:19:24 75° W 23:23:48 10° N
USA 267 3.3 23:14:04 10° ESE 23:20:27 59° NE 23:26:51 10° NW
OAO 2 Rocket 3.6 23:16:53 10° WSW 23:21:50 67° S 23:26:52 10° E
Cosmos 1703 Rocket 4.1 23:18:28 10° SSE 23:22:35 38° E 23:26:44 10° NNE
ATLAS 3B R/B 4.2 23:16:41 10° NW 23:22:58 42° WSW 23:29:25 10° S
Cosmos 1666 3.3 23:20:39 10° NNE 23:24:03 33° ENE 23:27:27 10° SE
Lacrosse 5 rocket 3.5 23:21:19 10° W 23:24:24 19° NW 23:27:22 10° N
Okean O Rocket 3.8 23:21:52 10° SSW 23:25:41 30° W 23:29:32 10° NW
STARLINK-52 3.4 23:23:29 10° SW 23:26:57 65° NW 23:30:04 13° NE
Cosmos 2242 Rocket 3.7 23:28:07 10° S 23:32:40 89° W 23:37:16 10° N
Feng Yun 1-1 Rocket 4.2 23:27:24 10° SSE 23:32:48 87° WSW 23:38:13 10° NNW
SL-4 R/B 4.3 23:31:58 10° NNW 23:33:14 11° N 23:34:34 10° N
CZ-4 R/B 2.5 23:30:25 10° ESE 23:33:24 21° ENE 23:36:22 10° NNE
Okean 1 4.3 23:30:50 10° SSE 23:34:10 26° E 23:36:52 13° NE
STARLINK-29 3.9 23:31:44 10° WSW 23:35:09 47° NW 23:37:59 14° NE
Cosmos 1263 4.0 23:33:22 10° S 23:36:30 86° E 23:39:29 10° N
ISS -3.9 23:38:18 10° NW 23:41:40 77° NE 23:45:01 10° SE
Cosmos 1627 Rocket 4.5 23:36:12 10° S 23:42:10 59° E 23:48:10 10° NNE
NOSS 7 (D) 4.3 23:39:38 10° NNW 23:42:45 57° ENE 23:46:18 10° SE
Cosmos 1190 Rocket 4.3 23:38:55 10° S 23:43:49 43° ESE 23:48:05 13° NE
Okean-O 2.5 23:39:49 10° SSE 23:44:13 70° ENE 23:48:38 10° N
Cosmos 2195 Rocket 4.4 23:43:18 10° S 23:49:28 75° E 23:55:44 10° N
SMAP 3.9 23:45:17 10° S 23:49:49 54° W 23:54:23 10° NNW
Cosmos 1743 3.5 23:47:07 10° NNE 23:50:31 29° ENE 23:53:55 10° SE
